• In United Kingdom
  • List of Countries
  • For 7 days
  • Water Temperature
  • Satellite Maps
  • Weather Map
  • Weather Widgets
  • user-avatar
    Login

    Hourly Weather Wiktoria

    Today, 21 September, Thursday

    Time Temperature Precipitation Wind Pressure Humidity
    00:00 +7°C° 0 mm 3 mps 750 mmHg 84%
    01:00 +7°C° 0 mm 3 mps 750 mmHg 86%
    02:00 +5°C° 0 mm 3 mps 750 mmHg 87%
    03:00 +5°C° 0 mm 3 mps 750 mmHg 88%
    04:00 +5°C° 0 mm 3 mps 749 mmHg 89%
    05:00 +5°C° 0 mm 3 mps 749 mmHg 88%
    06:00 +5°C° 0 mm 3 mps 749 mmHg 87%
    07:00 +5°C° 0 mm 4 mps 749 mmHg 86%
    08:00 +8°C° 0 mm 4 mps 749 mmHg 80%
    09:00 +10°C° 0 mm 5 mps 749 mmHg 73%
    10:00 +14°C° 0 mm 5 mps 749 mmHg 67%
    11:00 +16°C° 0 mm 5 mps 748 mmHg 64%
    12:00 +19°C° 0 mm 5 mps 747 mmHg 60%
    13:00 +20°C° 0 mm 5 mps 747 mmHg 57%
    14:00 +21°C° 0 mm 5 mps 746 mmHg 59%
    15:00 +22°C° 0 mm 4 mps 746 mmHg 62%
    16:00 +22°C° 0 mm 3 mps 745 mmHg 64%
    17:00 +20°C° 0 mm 3 mps 745 mmHg 65%
    18:00 +18°C° 0 mm 3 mps 745 mmHg 65%
    19:00 +16°C° 0 mm 3 mps 745 mmHg 66%
    20:00 +14°C° 0 mm 3 mps 746 mmHg 67%
    21:00 +14°C° 0 mm 2 mps 746 mmHg 69%
    22:00 +13°C° 0 mm 2 mps 746 mmHg 71%
    23:00 +13°C° 0 mm 2 mps 746 mmHg 71%

    Tomorrow, 22 September, Friday

    Time Temperature Precipitation Wind Pressure Humidity
    00:00 +13°C° 0 mm 2 mps 746 mmHg 70%
    01:00 +12°C° 0 mm 2 mps 746 mmHg 70%
    02:00 +10°C° 0 mm 2 mps 746 mmHg 74%
    03:00 +9°C° 0 mm 2 mps 746 mmHg 78%
    04:00 +8°C° 0 mm 2 mps 746 mmHg 82%
    05:00 +8°C° 0 mm 2 mps 746 mmHg 82%
    06:00 +8°C° 0 mm 2 mps 746 mmHg 82%
    07:00 +8°C° 0 mm 2 mps 746 mmHg 81%
    08:00 +11°C° 0 mm 3 mps 746 mmHg 75%
    09:00 +13°C° 0 mm 3 mps 746 mmHg 70%
    10:00 +17°C° 0 mm 3 mps 746 mmHg 64%
    11:00 +18°C° 0 mm 3 mps 745 mmHg 63%
    12:00 +20°C° 0 mm 4 mps 745 mmHg 61%
    13:00 +22°C° 0 mm 4 mps 744 mmHg 60%
    14:00 +22°C° 0 mm 3 mps 744 mmHg 61%
    15:00 +24°C° 0 mm 2 mps 743 mmHg 61%
    16:00 +24°C° 0 mm 2 mps 743 mmHg 62%
    17:00 +21°C° 0 mm 2 mps 743 mmHg 67%
    18:00 +19°C° 0 mm 2 mps 743 mmHg 72%
    19:00 +16°C° 0 mm 2 mps 743 mmHg 77%
    20:00 +16°C° 0 mm 2 mps 743 mmHg 77%
    21:00 +15°C° 0 mm 2 mps 743 mmHg 77%
    22:00 +14°C° 0 mm 2 mps 743 mmHg 78%
    23:00 +13°C° 0 mm 2 mps 743 mmHg 78%

    Day after tomorrow, 23 September, Saturday

    Time Temperature Precipitation Wind Pressure Humidity
    00:00 +13°C° 0 mm 2 mps 743 mmHg 78%
    01:00 +13°C° 0 mm 2 mps 742 mmHg 79%
    02:00 +12°C° 0 mm 2 mps 742 mmHg 79%
    03:00 +11°C° 0 mm 3 mps 741 mmHg 80%
    04:00 +11°C° 0 mm 3 mps 741 mmHg 81%
    05:00 +11°C° 0 mm 4 mps 741 mmHg 77%
    06:00 +11°C° 0 mm 4 mps 740 mmHg 74%
    07:00 +10°C° 0 mm 5 mps 740 mmHg 70%
    08:00 +14°C° 0 mm 5 mps 739 mmHg 67%
    09:00 +16°C° 0 mm 6 mps 739 mmHg 64%
    10:00 +19°C° 0 mm 6 mps 738 mmHg 61%
    11:00 +21°C° 0 mm 6 mps 737 mmHg 60%
    12:00 +23°C° 0 mm 6 mps 735 mmHg 59%
    13:00 +26°C° 0 mm 6 mps 734 mmHg 58%
    14:00 +26°C° 0 mm 6 mps 733 mmHg 57%
    15:00 +26°C° 0 mm 6 mps 732 mmHg 56%
    16:00 +26°C° 0 mm 6 mps 731 mmHg 55%
    17:00 +23°C° 0 mm 6 mps 733 mmHg 56%
    18:00 +21°C° 0 mm 7 mps 734 mmHg 58%
    19:00 +18°C° 0 mm 7 mps 736 mmHg 59%
    20:00 +16°C° 0 mm 6 mps 736 mmHg 65%
    21:00 +14°C° 0 mm 5 mps 737 mmHg 72%
    22:00 +12°C° 0 mm 4 mps 738 mmHg 78%
    23:00 +11°C° 0 mm 3 mps 738 mmHg 81%

    24 September, Sunday

    Time Temperature Precipitation Wind Pressure Humidity
    00:00 +10°C° 0 mm 3 mps 738 mmHg 84%
    01:00 +10°C° 0 mm 2 mps 738 mmHg 87%
    02:00 +10°C° 0 mm 3 mps 737 mmHg 86%
    03:00 +10°C° 0 mm 3 mps 737 mmHg 84%
    04:00 +10°C° 0 mm 3 mps 737 mmHg 83%
    05:00 +10°C° 0.1 mm 4 mps 737 mmHg 84%
    06:00 +10°C° 0.1 mm 4 mps 737 mmHg 84%
    07:00 +10°C° 0.1 mm 4 mps 738 mmHg 85%
    08:00 +10°C° 0.1 mm 5 mps 738 mmHg 83%
    09:00 +11°C° 0.1 mm 6 mps 738 mmHg 81%
    10:00 +11°C° 0.1 mm 7 mps 738 mmHg 79%
    11:00 +12°C° 0.4 mm 7 mps 738 mmHg 80%
    12:00 +12°C° 0.4 mm 8 mps 738 mmHg 80%
    13:00 +12°C° 0.4 mm 8 mps 738 mmHg 80%
    14:00 +12°C° 0.2 mm 7 mps 738 mmHg 79%
    15:00 +12°C° 0.2 mm 7 mps 738 mmHg 77%
    16:00 +14°C° 0.2 mm 6 mps 738 mmHg 75%
    17:00 +13°C° 0 mm 6 mps 739 mmHg 76%
    18:00 +12°C° 0 mm 5 mps 739 mmHg 76%
    19:00 +12°C° 0 mm 4 mps 740 mmHg 76%
    20:00 +11°C° 0 mm 4 mps 741 mmHg 78%
    21:00 +10°C° 0 mm 4 mps 741 mmHg 80%
    22:00 +8°C° 0 mm 4 mps 742 mmHg 81%
    23:00 +8°C° 0 mm 3 mps 742 mmHg 85%

    25 September, Monday

    Time Temperature Precipitation Wind Pressure Humidity
    00:00 +8°C° 0 mm 3 mps 743 mmHg 89%
    01:00 +7°C° 0 mm 2 mps 743 mmHg 92%
    02:00 +6°C° 0 mm 2 mps 743 mmHg 93%
    03:00 +6°C° 0 mm 2 mps 743 mmHg 93%
    04:00 +6°C° 0 mm 2 mps 743 mmHg 93%
    05:00 +6°C° 0.1 mm 2 mps 744 mmHg 93%
    06:00 +8°C° 0.1 mm 1 mps 744 mmHg 93%
    07:00 +8°C° 0.1 mm 1 mps 745 mmHg 93%
    08:00 +9°C° 0 mm 2 mps 745 mmHg 88%
    09:00 +10°C° 0 mm 2 mps 745 mmHg 83%
    10:00 +12°C° 0 mm 2 mps 746 mmHg 77%
    11:00 +12°C° 0.1 mm 3 mps 745 mmHg 76%
    12:00 +13°C° 0.1 mm 3 mps 745 mmHg 75%
    13:00 +14°C° 0.1 mm 3 mps 745 mmHg 73%
    14:00 +14°C° 0.2 mm 3 mps 745 mmHg 73%
    15:00 +16°C° 0.2 mm 3 mps 745 mmHg 72%
    16:00 +16°C° 0.2 mm 3 mps 745 mmHg 71%
    17:00 +14°C° 0.1 mm 2 mps 746 mmHg 76%
    18:00 +12°C° 0.1 mm 2 mps 746 mmHg 81%
    19:00 +11°C° 0.1 mm 1 mps 747 mmHg 86%
    20:00 +10°C° 0 mm 1 mps 747 mmHg 87%
    21:00 +9°C° 0 mm 1 mps 748 mmHg 89%
    22:00 +8°C° 0 mm 2 mps 748 mmHg 90%
    23:00 +7°C° 0 mm 2 mps 748 mmHg 91%

    26 September, Tuesday

    Time Temperature Precipitation Wind Pressure Humidity
    00:00 +7°C° 0 mm 2 mps 748 mmHg 92%
    01:00 +6°C° 0 mm 2 mps 748 mmHg 93%
    02:00 +6°C° 0 mm 2 mps 748 mmHg 93%
    03:00 +6°C° 0 mm 2 mps 748 mmHg 94%
    04:00 +5°C° 0 mm 3 mps 747 mmHg 94%
    05:00 +6°C° 0 mm 2 mps 747 mmHg 93%
    06:00 +6°C° 0 mm 2 mps 748 mmHg 92%
    07:00 +7°C° 0 mm 2 mps 748 mmHg 91%
    08:00 +9°C° 0 mm 2 mps 748 mmHg 85%
    09:00 +11°C° 0 mm 3 mps 747 mmHg 79%
    10:00 +14°C° 0 mm 3 mps 747 mmHg 72%
    11:00 +14°C° 0.1 mm 3 mps 746 mmHg 74%
    12:00 +14°C° 0.1 mm 4 mps 745 mmHg 75%
    13:00 +15°C° 0.1 mm 4 mps 745 mmHg 77%
    14:00 +15°C° 0.1 mm 4 mps 744 mmHg 78%
    15:00 +15°C° 0.1 mm 4 mps 744 mmHg 79%
    16:00 +15°C° 0.1 mm 4 mps 743 mmHg 79%
    17:00 +14°C° 0 mm 4 mps 743 mmHg 77%
    18:00 +14°C° 0 mm 4 mps 743 mmHg 75%
    19:00 +13°C° 0 mm 4 mps 743 mmHg 72%
    20:00 +13°C° 0.2 mm 4 mps 743 mmHg 77%
    21:00 +12°C° 0.2 mm 4 mps 743 mmHg 82%
    22:00 +12°C° 0.2 mm 3 mps 743 mmHg 87%
    23:00 +11°C° 0.2 mm 3 mps 742 mmHg 88%
    Show more